Weather History for Little Rock AFB, AR

Change the Weather History Date:

Saturday, August 31, 2013

  Actual Average Record
Temperature  
Mean Temperature 86 °F -  
Max Temperature 100 °F 89 °F 100 °F (1985)
Min Temperature 72 °F 66 °F 57 °F (1986)
Cooling Degree Days 20    
Growing Degree Days 36 (Base 50)    
Moisture  
Dew Point 69 °F    
Average Humidity 61    
Maximum Humidity 89    
Minimum Humidity 33    
Precipitation  
Precipitation 0.00 in - - ()
Sea Level Pressure  
Sea Level Pressure 29.88 in    
Wind  
Wind Speed 3 mph (SSW)    
Max Wind Speed 10 mph    
Max Gust Speed -    
Visibility 10 miles    
Events      
Averages and records for this station are not official NWS values.
T = Trace of Precipitation, MM = Missing Value Source: NWS Daily Summary

Daily Weather History Graph

Daily Weather History Graph

Search for Another Location

Airport:

Trip Planner

Search our weather history database for the weather conditions in past years. The results will help you decide how hot, cold, wet, or windy it might be!

Date:

Astronomy

Aug. 31, 2013 Rise Set
Actual Time 6:40 AM CDT 7:36 PM CDT
Civil Twilight 6:14 AM CDT 8:01 PM CDT
Nautical Twilight 5:44 AM CDT 8:32 PM CDT
Astronomical Twilight 5:12 AM CDT 9:03 PM CDT
Moon 2:16 AM CDT (8/31) 4:28 PM CDT (8/31)
Length of Visible Light 13h 47m
Length of Day
12h 55m
Waning Crescent, 21% of the Moon is Illuminated
Aug 31
Waning Crescent
Sep 5
New
Sep 12
First Quarter
Sep 19
Full
Sep 26
Last Quarter

Hourly Weather History & Observations

Time (CDT) Temp. Heat Index Dew Point Humidity Pressure Visibility Wind Dir Wind Speed Gust Speed Precip Events Conditions
12:58 AM 76.1 °F - 70.0 °F 81% 29.90 in 10.0 mi Calm Calm - N/A   Clear
1:58 AM 75.0 °F - 70.3 °F 85% 29.90 in 10.0 mi NE 2.3 mph - N/A   Clear
2:58 AM 74.3 °F - 70.2 °F 87% 29.90 in 10.0 mi Calm Calm - N/A   Clear
3:58 AM 73.9 °F - 69.4 °F 86% 29.90 in 10.0 mi Calm Calm - N/A   Clear
4:58 AM 76.5 °F - 69.1 °F 78% 29.90 in 10.0 mi Calm Calm - N/A   Clear
5:58 AM 74.3 °F - 68.7 °F 83% 29.91 in 10.0 mi Calm Calm - N/A   Clear
6:58 AM 72.1 °F - 68.9 °F 89% 29.91 in 10.0 mi Calm Calm - N/A   Clear
7:58 AM 78.1 °F - 70.5 °F 77% 29.92 in 10.0 mi West 4.6 mph - N/A   Clear
8:58 AM 83.7 °F 87.2 °F 69.1 °F 61% 29.93 in 10.0 mi WSW 5.8 mph - N/A   Clear
9:58 AM 88.0 °F 93.4 °F 70.5 °F 56% 29.93 in 10.0 mi WSW 8.1 mph - N/A   Clear
10:58 AM 91.6 °F 97.2 °F 69.8 °F 49% 29.92 in 10.0 mi West 8.1 mph - N/A   Clear
11:58 AM 94.8 °F 100.3 °F 69.1 °F 43% 29.91 in 10.0 mi Variable 2.3 mph - N/A   Clear
12:58 PM 97.0 °F 101.0 °F 66.9 °F 37% 29.89 in 10.0 mi South 8.1 mph - N/A   Clear
1:58 PM 99.0 °F 102.3 °F 65.3 °F 33% 29.88 in 10.0 mi SSW 10.4 mph - N/A   Clear
2:58 PM 99.5 °F 103.9 °F 66.9 °F 34% 29.85 in 10.0 mi Variable 4.6 mph - N/A   Clear
3:58 PM 99.5 °F 103.2 °F 66.0 °F 33% 29.83 in 10.0 mi SSE 5.8 mph - N/A   Clear
4:58 PM 99.3 °F 104.2 °F 67.1 °F 35% 29.82 in 10.0 mi SE 8.1 mph - N/A   Clear
5:58 PM 98.2 °F 102.8 °F 67.5 °F 36% 29.83 in 10.0 mi South 6.9 mph - N/A   Clear
6:58 PM 95.0 °F 100.7 °F 69.6 °F 43% 29.82 in 10.0 mi South 4.6 mph - N/A   Clear
7:58 PM 90.7 °F 96.9 °F 70.7 °F 52% 29.83 in 10.0 mi South 2.3 mph - N/A   Clear
8:58 PM 86.2 °F 91.4 °F 71.1 °F 60% 29.84 in 10.0 mi SW 3.5 mph - N/A   Clear
9:58 PM 82.0 °F 86.3 °F 71.1 °F 69% 29.85 in 10.0 mi Variable 1.2 mph - N/A   Clear
10:58 PM 81.5 °F 85.9 °F 71.6 °F 72% 29.84 in 10.0 mi Calm Calm - N/A   Clear
11:58 PM 78.1 °F - 71.6 °F 80% 29.83 in 10.0 mi ENE 2.3 mph - N/A   Clear